Location: Basses Si�yes
(44.0835°N, 6.2037°E)
Time: 02:02:33
(UTC+00:00)

NOSS 3-2 (A) - Pass Details

Date: 27 February 2020
Orbit: 807 x 1401 km, 63.4° (Epoch: 25 February)

Event Time Altitude Azimuth Distance (km) Brightness Sun altitude
Rises 18:57:43 0° 324° (NW) 3,918 7.3 -18.3°
Reaches altitude 10° 19:00:23 10° 330° (NNW) 3,042 6.6 -18.8°
Maximum altitude 19:07:32 49° 44° (NE) 1,579 4.3 -20.0°
Enters shadow 19:10:57 32° 98° (E) 2,069 4.6 -20.6°
